Time,TemperatureF,DewpointF,PressureIn,WindDirection,WindDirectionDegrees,WindSpeedMPH,WindSpeedGustMPH,Humidity,HourlyPrecipIn,Conditions,Clouds,dailyrainin,SoftwareType,DateUTC
2013-05-08 00:04:00,59.2,50.0,29.93,South,175,0.0,0.0,72,0.00,,,0.00,weatherlink.com 1.10,2013-05-08 05:04:00,
2013-05-08 00:19:00,59.1,50.0,29.93,South,175,0.0,0.0,72,0.00,,,0.00,weatherlink.com 1.10,2013-05-08 05:19:00,
2013-05-08 00:34:00,58.7,50.0,29.93,South,175,0.0,0.0,72,0.00,,,0.00,weatherlink.com 1.10,2013-05-08 05:34:00,
2013-05-08 00:49:00,57.9,49.0,29.93,South,175,0.0,0.0,73,0.00,,,0.00,weatherlink.com 1.10,2013-05-08 05:49:00,
2013-05-08 01:04:00,58.0,49.0,29.93,South,173,0.0,0.0,72,0.00,,,0.00,weatherlink.com 1.10,2013-05-08 06:04:00,
2013-05-08 01:19:00,57.9,49.0,29.93,South,173,0.0,0.0,72,0.00,,,0.00,weatherlink.com 1.10,2013-05-08 06:19:00,
2013-05-08 01:34:00,56.8,49.0,29.93,South,173,0.0,0.0,74,0.00,,,0.00,weatherlink.com 1.10,2013-05-08 06:34:00,
2013-05-08 01:49:00,56.9,49.0,29.93,SSW,196,0.0,0.0,75,0.00,,,0.00,weatherlink.com 1.10,2013-05-08 06:49:00,
2013-05-08 02:04:00,57.6,49.0,29.93,SSE,152,0.0,0.0,74,0.00,,,0.00,weatherlink.com 1.10,2013-05-08 07:04:00,
2013-05-08 02:19:00,57.5,49.0,29.93,South,184,0.0,0.0,74,0.00,,,0.00,weatherlink.com 1.10,2013-05-08 07:19:00,
2013-05-08 02:35:00,57.1,49.0,29.93,SSE,165,0.0,0.0,75,0.00,,,0.00,weatherlink.com 1.10,2013-05-08 07:35:00,
2013-05-08 02:50:00,55.9,49.0,29.93,SE,133,0.0,0.0,78,0.00,,,0.00,weatherlink.com 1.10,2013-05-08 07:50:00,
2013-05-08 03:20:00,55.3,49.0,29.92,SE,132,0.0,0.0,79,0.00,,,0.00,weatherlink.com 1.10,2013-05-08 08:20:00,
2013-05-08 03:35:00,55.3,49.0,29.93,SE,130,0.0,0.0,79,0.00,,,0.00,weatherlink.com 1.10,2013-05-08 08:35:00,
2013-05-08 03:50:00,56.2,49.0,29.93,SSE,161,0.0,0.0,76,0.00,,,0.00,weatherlink.com 1.10,2013-05-08 08:50:00,
2013-05-08 04:05:00,56.4,49.0,29.93,ENE,75,0.0,0.0,76,0.00,,,0.00,weatherlink.com 1.10,2013-05-08 09:05:00,
2013-05-08 04:20:00,56.6,49.0,29.93,SSE,167,0.0,0.0,75,0.00,,,0.00,weatherlink.com 1.10,2013-05-08 09:20:00,
2013-05-08 04:35:00,57.3,49.0,29.93,SSE,160,0.0,0.0,73,0.00,,,0.00,weatherlink.com 1.10,2013-05-08 09:35:00,
2013-05-08 04:50:00,57.3,49.0,29.93,South,173,0.0,0.0,73,0.00,,,0.00,weatherlink.com 1.10,2013-05-08 09:50:00,
2013-05-08 05:05:00,58.2,49.0,29.93,SSW,211,0.0,0.0,71,0.00,,,0.00,weatherlink.com 1.10,2013-05-08 10:05:00,
2013-05-08 05:20:00,58.0,49.0,29.93,SSW,210,0.0,0.0,71,0.00,,,0.00,weatherlink.com 1.10,2013-05-08 10:20:00,
2013-05-08 05:35:00,57.7,49.0,29.93,South,186,0.0,0.0,72,0.00,,,0.00,weatherlink.com 1.10,2013-05-08 10:35:00,
2013-05-08 05:50:00,56.9,49.0,29.93,South,188,0.0,0.0,74,0.00,,,0.00,weatherlink.com 1.10,2013-05-08 10:50:00,
2013-05-08 06:05:00,56.3,48.0,29.94,SSW,212,0.0,0.0,75,0.00,,,0.00,weatherlink.com 1.10,2013-05-08 11:05:00,
2013-05-08 06:20:00,56.0,49.0,29.94,SW,215,0.0,0.0,76,0.00,,,0.00,weatherlink.com 1.10,2013-05-08 11:20:00,
2013-05-08 06:35:00,56.0,49.0,29.94,SSW,212,0.0,0.0,76,0.00,,,0.00,weatherlink.com 1.10,2013-05-08 11:35:00,
2013-05-08 06:50:00,56.1,49.0,29.94,SSW,202,0.0,0.0,77,0.00,,,0.00,weatherlink.com 1.10,2013-05-08 11:50:00,
2013-05-08 07:05:00,56.2,49.0,29.94,SE,132,0.0,0.0,77,0.00,,,0.00,weatherlink.com 1.10,2013-05-08 12:05:00,
2013-05-08 07:20:00,56.6,50.0,29.94,SE,124,0.0,0.0,78,0.00,,,0.00,weatherlink.com 1.10,2013-05-08 12:20:00,
2013-05-08 07:35:00,57.3,50.0,29.94,ESE,123,0.0,0.0,77,0.00,,,0.00,weatherlink.com 1.10,2013-05-08 12:35:00,
2013-05-08 07:50:00,58.1,51.0,29.95,SE,124,0.0,0.0,77,0.00,,,0.00,weatherlink.com 1.10,2013-05-08 12:50:00,
2013-05-08 08:05:00,58.6,51.0,29.95,SE,124,0.0,0.0,76,0.00,,,0.00,weatherlink.com 1.10,2013-05-08 13:05:00,
2013-05-08 08:20:00,59.1,52.0,29.95,ESE,121,0.0,0.0,78,0.00,,,0.00,weatherlink.com 1.10,2013-05-08 13:20:00,
2013-05-08 08:35:00,59.6,52.0,29.95,SE,142,0.0,0.0,76,0.00,,,0.00,weatherlink.com 1.10,2013-05-08 13:35:00,
2013-05-08 08:50:00,60.6,53.0,29.95,SE,134,0.0,0.0,76,0.00,,,0.00,weatherlink.com 1.10,2013-05-08 13:50:00,
2013-05-08 09:05:00,61.9,53.0,29.95,ESE,103,0.0,0.0,73,0.00,,,0.00,weatherlink.com 1.10,2013-05-08 14:05:00,
2013-05-08 09:20:00,63.3,53.0,29.95,North,351,0.0,0.0,69,0.00,,,0.00,weatherlink.com 1.10,2013-05-08 14:20:00,
2013-05-08 09:35:00,63.8,53.0,29.94,ENE,62,0.0,0.0,68,0.00,,,0.00,weatherlink.com 1.10,2013-05-08 14:35:00,
2013-05-08 09:50:00,65.0,54.0,29.93,ENE,57,0.0,0.0,67,0.00,,,0.00,weatherlink.com 1.10,2013-05-08 14:50:00,
2013-05-08 10:05:00,65.7,54.0,29.93,NE,56,0.0,0.0,65,0.00,,,0.00,weatherlink.com 1.10,2013-05-08 15:05:00,
2013-05-08 10:20:00,67.0,52.0,29.93,East,101,0.0,0.0,60,0.00,,,0.00,weatherlink.com 1.10,2013-05-08 15:20:00,
2013-05-08 10:35:00,69.0,52.0,29.93,East,79,0.0,0.0,56,0.00,,,0.00,weatherlink.com 1.10,2013-05-08 15:35:00,
2013-05-08 11:06:00,71.4,52.0,29.93,South,180,0.0,0.0,50,0.00,,,0.00,weatherlink.com 1.10,2013-05-08 16:06:00,
2013-05-08 11:21:00,72.2,52.0,29.93,ESE,107,0.0,0.0,49,0.00,,,0.00,weatherlink.com 1.10,2013-05-08 16:21:00,
2013-05-08 11:36:00,72.3,51.0,29.93,SSW,193,0.0,0.0,47,0.00,,,0.00,weatherlink.com 1.10,2013-05-08 16:36:00,
2013-05-08 11:51:00,72.9,51.0,29.93,SSW,198,0.0,0.0,46,0.00,,,0.00,weatherlink.com 1.10,2013-05-08 16:51:00,
2013-05-08 12:06:00,72.7,51.0,29.92,SSE,156,0.0,0.0,46,0.00,,,0.00,weatherlink.com 1.10,2013-05-08 17:06:00,
2013-05-08 12:21:00,72.6,51.0,29.92,SSE,163,0.0,0.0,46,0.00,,,0.00,weatherlink.com 1.10,2013-05-08 17:21:00,
2013-05-08 12:51:00,72.8,51.0,29.91,South,181,0.0,0.0,46,0.00,,,0.00,weatherlink.com 1.10,2013-05-08 17:51:00,
2013-05-08 13:06:00,72.9,51.0,29.91,SSW,192,0.0,0.0,46,0.00,,,0.00,weatherlink.com 1.10,2013-05-08 18:06:00,
2013-05-08 13:21:00,73.1,50.0,29.90,SSE,167,0.0,0.0,45,0.00,,,0.00,weatherlink.com 1.10,2013-05-08 18:21:00,
2013-05-08 13:36:00,73.0,50.0,29.90,SSE,151,0.0,0.0,44,0.00,,,0.00,weatherlink.com 1.10,2013-05-08 18:36:00,
2013-05-08 13:51:00,73.4,49.0,29.90,SSE,159,0.0,0.0,43,0.00,,,0.00,weatherlink.com 1.10,2013-05-08 18:51:00,
2013-05-08 14:06:00,73.2,51.0,29.89,SSE,149,0.0,0.0,45,0.00,,,0.00,weatherlink.com 1.10,2013-05-08 19:06:00,
2013-05-08 14:21:00,72.2,52.0,29.90,SSE,155,0.0,0.0,49,0.00,,,0.00,weatherlink.com 1.10,2013-05-08 19:21:00,
2013-05-08 14:36:00,71.6,51.0,29.90,SSE,151,0.0,0.0,49,0.00,,,0.00,weatherlink.com 1.10,2013-05-08 19:36:00,
2013-05-08 14:51:00,71.5,52.0,29.90,South,173,0.0,0.0,50,0.00,,,0.00,weatherlink.com 1.10,2013-05-08 19:51:00,
2013-05-08 15:06:00,67.9,53.0,29.91,SSE,161,0.0,0.0,60,0.00,,,0.00,weatherlink.com 1.10,2013-05-08 20:06:00,
2013-05-08 15:21:00,61.2,54.0,29.91,SE,142,0.0,0.0,78,0.11,,,0.11,weatherlink.com 1.10,2013-05-08 20:21:00,
2013-05-08 15:36:00,61.7,56.0,29.90,SSE,167,0.0,0.0,82,0.11,,,0.11,weatherlink.com 1.10,2013-05-08 20:36:00,
2013-05-08 15:51:00,62.4,58.0,29.90,SSE,153,0.0,0.0,84,0.11,,,0.11,weatherlink.com 1.10,2013-05-08 20:51:00,
2013-05-08 16:06:00,65.4,56.0,29.90,South,169,0.0,0.0,72,0.11,,,0.11,weatherlink.com 1.10,2013-05-08 21:06:00,
2013-05-08 16:21:00,66.9,56.0,29.89,SSW,210,0.0,0.0,68,0.00,,,0.11,weatherlink.com 1.10,2013-05-08 21:21:00,
2013-05-08 16:36:00,67.5,56.0,29.89,South,174,0.0,0.0,66,0.00,,,0.11,weatherlink.com 1.10,2013-05-08 21:36:00,
2013-05-08 16:51:00,67.7,56.0,29.89,SSE,165,0.0,0.0,66,0.00,,,0.11,weatherlink.com 1.10,2013-05-08 21:51:00,
2013-05-08 17:06:00,66.9,56.0,29.90,SW,222,0.0,0.0,68,0.00,,,0.11,weatherlink.com 1.10,2013-05-08 22:06:00,
2013-05-08 17:21:00,66.6,55.0,29.90,SSW,205,0.0,0.0,66,0.00,,,0.11,weatherlink.com 1.10,2013-05-08 22:21:00,
2013-05-08 17:36:00,66.5,55.0,29.90,West,264,0.0,0.0,66,0.00,,,0.11,weatherlink.com 1.10,2013-05-08 22:36:00,
2013-05-08 17:51:00,66.1,55.0,29.90,SSW,200,0.0,0.0,67,0.00,,,0.11,weatherlink.com 1.10,2013-05-08 22:51:00,
2013-05-08 18:06:00,65.6,56.0,29.90,SSW,211,0.0,0.0,70,0.00,,,0.11,weatherlink.com 1.10,2013-05-08 23:06:00,
2013-05-08 18:21:00,64.6,55.0,29.91,SW,219,0.0,0.0,70,0.00,,,0.11,weatherlink.com 1.10,2013-05-08 23:21:00,
2013-05-08 18:36:00,64.1,55.0,29.91,SW,217,0.0,0.0,73,0.00,,,0.11,weatherlink.com 1.10,2013-05-08 23:36:00,
2013-05-08 18:51:00,63.3,56.0,29.91,SW,235,0.0,0.0,78,0.00,,,0.11,weatherlink.com 1.10,2013-05-08 23:51:00,
2013-05-08 19:06:00,61.6,57.0,29.91,SW,225,0.0,0.0,86,0.01,,,0.12,weatherlink.com 1.10,2013-05-09 00:06:00,
2013-05-08 19:21:00,60.8,58.0,29.91,SSW,195,0.0,0.0,89,0.02,,,0.13,weatherlink.com 1.10,2013-05-09 00:21:00,
2013-05-08 19:36:00,60.1,57.0,29.91,SW,215,0.0,0.0,89,0.03,,,0.14,weatherlink.com 1.10,2013-05-09 00:36:00,
2013-05-08 19:51:00,59.7,57.0,29.91,SSW,194,0.0,0.0,91,0.05,,,0.16,weatherlink.com 1.10,2013-05-09 00:51:00,
2013-05-08 20:06:00,59.3,57.0,29.91,SSE,167,0.0,0.0,91,0.05,,,0.17,weatherlink.com 1.10,2013-05-09 01:06:00,
2013-05-08 20:21:00,59.1,57.0,29.91,SSE,167,0.0,0.0,92,0.04,,,0.17,weatherlink.com 1.10,2013-05-09 01:21:00,
2013-05-08 20:36:00,58.8,57.0,29.91,SSE,167,0.0,0.0,93,0.03,,,0.17,weatherlink.com 1.10,2013-05-09 01:36:00,
2013-05-08 20:51:00,58.6,57.0,29.91,SSE,167,0.0,0.0,93,0.03,,,0.19,weatherlink.com 1.10,2013-05-09 01:51:00,
2013-05-08 21:06:00,58.3,56.0,29.91,SSE,167,0.0,0.0,93,0.06,,,0.23,weatherlink.com 1.10,2013-05-09 02:06:00,
2013-05-08 21:21:00,58.2,57.0,29.91,SSE,167,0.0,0.0,94,0.08,,,0.25,weatherlink.com 1.10,2013-05-09 02:21:00,
2013-05-08 21:51:00,57.7,56.0,29.92,SSE,167,0.0,0.0,94,0.06,,,0.25,weatherlink.com 1.10,2013-05-09 02:51:00,
2013-05-08 22:06:00,57.6,56.0,29.92,SSE,167,0.0,0.0,95,0.01,,,0.25,weatherlink.com 1.10,2013-05-09 03:06:00,
2013-05-08 22:21:00,57.2,56.0,29.92,SSE,167,0.0,0.0,95,0.00,,,0.25,weatherlink.com 1.10,2013-05-09 03:21:00,
2013-05-08 22:36:00,57.0,56.0,29.92,SSE,167,0.0,0.0,95,0.00,,,0.25,weatherlink.com 1.10,2013-05-09 03:36:00,
2013-05-08 22:51:00,57.1,56.0,29.91,SSE,167,0.0,0.0,95,0.00,,,0.25,weatherlink.com 1.10,2013-05-09 03:51:00,
2013-05-08 23:06:00,56.9,56.0,29.90,SE,136,0.0,0.0,95,0.00,,,0.25,weatherlink.com 1.10,2013-05-09 04:06:00,
2013-05-08 23:21:00,56.7,56.0,29.90,ESE,106,0.0,0.0,96,0.00,,,0.25,weatherlink.com 1.10,2013-05-09 04:21:00,
2013-05-08 23:36:00,56.3,55.0,29.91,ESE,106,0.0,0.0,95,0.00,,,0.25,weatherlink.com 1.10,2013-05-09 04:36:00,
2013-05-08 23:51:00,56.2,55.0,29.90,East,80,0.0,0.0,96,0.00,,,0.25,weatherlink.com 1.10,2013-05-09 04:51:00,